Location: T�bingen+AIT
(48.5342°N, 9.0700°E)
Time: 20:26:44
(UTC+02:00)

GP-B - Pass Details

Date: 14 September 2017
Orbit: 632 x 636 km, 89.8° (Epoch: 19 September)

Event Time Altitude Azimuth Distance (km) Brightness Sun altitude
Rises 20:56:04 0° 9° (N) 2,939 6.7 -13.3°
Reaches altitude 10° 20:58:30 10° 20° (NNE) 2,026 5.7 -13.7°
Maximum altitude 21:02:30 32° 84° (E) 1,094 3.9 -14.3°
Enters shadow 21:04:17 23° 125° (SE) 1,332 4.2 -14.6°
